Location: Pinehill
(32.1047°N, 94.6054°W)
Time: 23:13:55
(UTC+00:00)

ISS - Visible Passes

Search period start: 12 August 2022 00:00
Search period end: 22 August 2022 00:00
Orbit: 412 x 420 km, 51.6° (Epoch: 12 August)

Date Brightness Start Highest point End Pass type
(mag) Time Alt. Az. Time Alt. Az. Time Alt. Az.
18 Aug -1.0 11:15:39 10° SSE 11:17:40 15° SE 11:19:41 10° E visible
20 Aug -3.1 11:13:40 10° SSW 11:16:56 54° SE 11:20:12 10° NE visible
21 Aug -2.0 10:26:34 16° S 10:28:24 26° SE 10:31:15 10° ENE visible
